Theta_e
315 318 318 320 321 324 325 325 325 324 324 324 322 321 321 320 319 318 318 318 318 319 320 319 319 319 319 316 320 320 319 320 320 318 317 317 317 317 317 317 317 317 317
316 318 320 318 320 321 323 323 324 323 322 321 321 320 319 318 318 318 317 317 318 314 314 316 317 317 318 315 318 320 320 320 319 317 315 315 315 316 315 316 316 315 315
309 311 315 318 318 319 319 320 321 320 318 319 318 319 318 317 317 317 317 316 314 312 310 309 310 309 311 313 314 319 319 317 317 317 314 312 311 312 312 312 315 315 315
304 308 312 316 317 317 316 317 317 320 320 319 317 317 316 316 315 317 315 313 311 310 310 310 307 306 307 308 311 312 317 316 316 316 315 313 313 312 311 310 310 312 313
300 301 306 314 316 318 317 318 319 319 319 320 318 319 318 317 315 313 311 311 310 310 310 310 309 306 305 305 306 307 310 314 313 315 315 315 314 313 313 312 310 309 308
298 299 301 311 313 316 317 319 318 316 318 318 319 320 316 314 313 313 312 311 311 310 310 310 310 309 308 308 308 308 308 308 309 310 310 310 312 313 313 313 313 312 311
296 297 298 301 306 310 311 314 316 317 317 316 315 316 317 316 316 316 314 312 312 312 311 310 310 310 310 310 309 309 309 309 308 308 309 309 310 310 311 313 312 312 312
295 295 295 296 299 301 304 308 311 312 313 314 315 315 315 316 316 315 314 313 312 311 311 311 310 310 310 310 310 310 310 309 309 309 308 309 310 310 311 312 312 312 312
294 294 294 295 296 298 299 300 301 303 306 308 310 311 312 313 313 314 315 313 313 315 312 311 310 310 310 310 310 310 309 309 309 309 308 308 308 309 309 311 312 313 312
294 293 293 293 293 294 295 296 298 298 298 300 302 304 306 309 311 311 312 314 311 313 313 314 314 313 312 312 311 310 310 309 309 309 308 308 307 307 308 308 310 311 312
293 292 292 291 291 292 293 294 295 296 296 297 298 298 299 301 303 306 309 311 312 312 312 312 312 313 315 315 316 317 316 314 310 309 308 308 308 308 307 307 308 311 311
292 291 291 292 292 292 293 293 294 293 293 294 294 295 296 298 298 299 300 302 305 307 309 310 311 311 311 312 313 314 315 316 315 315 315 311 310 309 308 307 307 307 307
291 291 291 290 290 291 291 292 291 291 292 292 292 293 293 293 293 294 295 297 298 300 301 303 304 305 307 309 310 312 312 314 314 314 315 313 310 312 315 308 307 307 307
290 289 289 289 289 289 289 290 290 290 290 290 290 290 291 291 291 291 292 292 293 295 296 297 299 301 303 305 307 307 310 312 312 313 314 314 313 314 314 313 308 308 307
289 289 288 288 288 288 288 287 288 288 288 288 289 289 289 289 290 290 290 291 291 291 292 293 294 295 297 300 303 307 308 307 309 311 312 312 313 313 313 311 311 308 307
288 288 287 287 287 287 287 287 287 287 287 287 287 287 288 288 288 289 289 289 290 290 290 291 291 292 293 294 295 302 305 306 306 306 309 310 311 311 311 312 311 310 308
287 287 286 286 286 286 286 286 286 286 286 286 286 286 286 287 287 287 288 288 288 289 289 289 290 290 291 291 292 292 298 303 305 306 307 307 309 309 310 311 311 310 306
286 286 286 286 286 286 286 286 286 286 285 285 285 284 284 285 286 286 287 287 287 288 288 289 289 289 290 290 290 291 291 293 297 304 305 304 306 308 308 308 308 309 308
285 285 285 285 285 284 284 283 283 283 283 283 283 283 283 283 283 284 285 286 286 287 287 287 287 287 288 289 290 291 291 291 293 295 302 304 303 306 307 307 307 308 308
285 284 284 283 283 283 282 282 282 282 282 282 282 282 282 282 282 283 284 285 285 285 285 286 286 287 288 288 289 289 290 290 293 295 296 301 303 303 304 305 307 307 307
283 283 283 282 282 281 281 281 281 281 281 281 282 282 282 282 281 282 283 284 285 285 286 287 286 286 286 287 288 289 291 291 292 293 295 297 300 301 302 303 304 306 307
282 281 281 281 281 281 280 281 281 281 281 281 281 281 281 281 281 281 282 283 284 285 285 285 286 286 286 286 287 288 290 291 292 292 293 295 298 299 301 302 303 304 303
281 281 280 281 281 280 280 280 280 280 280 280 280 280 281 281 281 280 281 282 283 283 283 284 284 285 285 285 286 288 288 291 291 293 294 295 297 298 299 301 302 302 298
280 280 280 280 280 280 279 279 279 279 279 279 279 279 280 280 280 280 280 280 281 282 282 283 284 284 285 285 286 288 288 289 291 293 294 295 296 297 299 300 301 298 297
279 279 279 279 279 279 279 279 279 278 278 278 278 279 279 279 279 279 279 279 281 282 283 283 284 284 285 286 287 288 288 289 290 292 293 294 296 298 298 299 299 297 296
279 279 278 278 279 279 278 279 278 278 277 278 278 278 278 278 278 278 279 279 280 281 282 283 284 285 285 286 287 287 288 288 290 292 293 293 294 297 298 298 298 296 296
Wind_Speed
2 6 11 18 16 9 20 26 28 22 26 25 24 23 21 19 18 17 21 22 20 20 20 22 22 20 23 24 25 20 21 20 22 19 16 17 18 20 22 20 18 16 18
11 11 12 15 20 17 11 16 23 21 15 11 16 19 17 16 16 16 18 22 19 23 25 27 26 27 24 24 26 25 26 25 21 24 19 12 18 22 23 24 21 22 20
41 30 27 21 19 17 12 14 12 6 3 10 6 12 13 13 15 17 17 20 19 20 17 19 20 21 23 24 27 29 29 29 27 25 17 8 10 14 24 26 27 27 25
45 44 37 35 28 17 15 10 6 5 13 13 10 10 10 12 13 14 13 15 17 16 15 16 17 19 20 24 25 26 27 26 28 27 26 13 8 10 8 22 28 29 30
35 39 39 33 26 25 17 11 10 4 8 13 8 6 4 2 1 4 8 11 13 15 15 16 17 18 19 20 22 23 27 28 27 28 27 27 21 16 13 14 19 22 29
31 34 34 33 33 19 17 16 17 15 9 5 10 11 11 9 8 5 5 5 7 11 14 16 18 19 20 21 21 23 25 26 28 29 28 29 32 32 25 17 15 20 21
29 34 35 34 32 30 30 26 19 17 14 13 12 0 11 12 10 6 4 4 7 10 11 15 17 20 21 21 22 24 25 27 29 30 32 31 31 31 32 34 29 26 25
26 30 30 31 29 28 27 24 22 21 17 10 10 11 6 2 8 15 16 11 10 10 14 16 16 17 20 21 23 25 26 28 30 31 31 34 35 34 32 33 28 27 26
23 24 25 26 26 25 24 23 22 21 18 16 13 10 6 5 4 4 11 21 16 19 19 17 19 19 19 21 23 26 27 29 30 32 33 35 36 37 37 35 34 33 29
21 23 25 24 23 22 21 21 20 21 19 16 15 14 11 8 6 4 3 15 26 27 23 19 23 24 24 24 26 30 29 30 32 32 34 35 35 37 39 39 38 37 40
19 21 22 22 23 23 22 20 20 18 16 14 13 11 11 10 8 6 5 7 13 24 33 29 23 28 24 27 29 31 33 36 36 35 37 38 37 38 39 39 40 40 40
18 19 21 22 24 24 24 25 24 22 21 19 16 14 11 9 7 7 6 5 6 10 16 18 22 21 20 22 30 32 30 30 31 37 37 41 41 40 40 40 41 42 43
19 21 21 22 23 24 24 25 25 25 25 24 23 21 20 18 17 15 13 13 14 14 14 15 17 20 22 22 24 27 30 34 35 41 40 40 40 41 41 44 44 43 43
14 16 19 20 20 20 20 22 23 25 25 24 24 24 24 24 25 24 23 21 21 22 22 22 22 22 22 23 25 25 27 30 32 33 36 39 41 42 45 45 44 43 45
13 15 16 16 18 21 22 23 23 24 23 22 23 25 25 25 25 25 25 25 25 25 26 27 28 28 28 27 24 27 30 30 31 33 34 36 36 38 39 41 45 49 52
12 13 14 15 17 18 20 22 22 21 22 23 22 24 24 24 25 26 26 26 26 26 26 28 30 31 32 31 30 25 29 34 36 35 35 37 36 36 35 38 36 41 44
11 12 14 15 17 19 20 22 23 23 24 23 24 26 27 28 28 27 27 28 29 29 30 30 29 30 31 31 33 32 33 31 36 39 38 37 37 35 35 36 34 36 40
11 12 15 16 17 17 19 21 22 23 24 25 28 29 30 30 30 30 31 31 32 32 33 34 33 33 31 30 32 35 39 40 41 38 42 40 38 36 34 34 35 35 37
12 13 15 17 18 19 22 23 25 25 26 28 30 31 31 33 34 35 35 35 34 33 33 33 34 37 36 32 31 31 37 41 42 41 41 43 42 39 36 35 34 34 35
12 16 19 19 18 21 23 24 25 27 28 30 32 33 32 31 33 35 37 38 37 38 37 36 33 30 34 37 32 30 35 39 38 38 41 43 42 39 37 37 36 36 36
16 17 19 20 20 24 24 26 27 28 30 31 32 33 32 33 33 34 34 35 36 38 39 40 40 37 33 31 32 30 32 36 37 38 39 42 41 40 37 37 38 38 33
18 18 21 21 23 23 24 26 27 29 31 31 32 33 33 34 34 34 35 35 35 37 38 41 43 42 41 40 32 30 31 32 37 40 41 39 43 38 36 36 38 34 33
20 21 22 23 23 23 24 27 28 30 31 32 33 34 34 34 33 34 34 34 35 35 39 41 44 48 47 45 38 35 35 33 36 37 39 38 40 36 35 35 34 32 36
21 22 23 25 27 26 27 28 30 30 31 33 35 35 35 36 35 33 31 33 33 37 41 42 46 49 50 48 41 43 43 33 33 33 32 36 38 36 36 35 33 34 42
20 21 24 25 27 29 30 29 30 30 32 33 35 35 37 37 37 34 36 31 31 32 38 41 41 44 49 47 42 43 42 39 41 39 36 30 30 36 37 38 33 35 44
23 24 24 27 30 31 31 29 28 29 32 34 35 35 37 35 35 37 44 33 30 31 31 33 35 40 39 41 39 41 41 38 36 35 34 32 29 36 36 40 39 37 43
Wind_Direction
104 106 74 71 80 167 193 197 186 171 180 185 182 193 202 202 200 203 200 199 196 194 190 195 198 202 212 208 193 200 203 202 199 193 199 198 197 203 203 195 202 205 215
31 110 91 79 77 104 128 166 163 150 153 160 185 195 202 210 213 209 202 202 211 214 209 211 209 211 216 204 195 200 202 208 207 205 207 208 214 215 212 204 209 213 212
40 34 66 81 79 92 114 107 105 158 287 241 223 187 188 206 212 215 219 214 213 216 219 222 226 226 221 213 206 206 212 213 208 217 206 195 219 220 225 222 218 218 219
33 41 53 63 70 83 118 126 84 144 199 190 170 183 183 197 214 211 219 215 218 222 224 229 228 229 226 223 221 216 219 222 220 217 220 210 207 204 214 222 227 229 233
30 36 44 55 62 65 70 69 64 174 211 182 147 190 154 166 222 218 223 233 227 229 237 240 240 239 235 233 232 230 226 231 233 231 233 228 222 212 214 222 228 232 235
37 43 49 56 55 69 63 64 58 54 73 189 187 188 184 178 198 204 218 235 246 249 254 251 244 242 244 243 243 243 241 239 239 244 243 243 235 232 226 223 229 244 249
40 46 48 51 53 50 57 68 75 63 55 60 48 189 195 199 198 211 231 276 271 272 265 259 252 250 252 252 250 249 248 247 246 244 248 249 248 248 248 242 244 250 249
41 46 45 50 53 54 55 53 55 54 67 70 77 67 40 296 242 237 241 268 254 250 278 271 261 257 254 252 253 253 252 252 251 251 248 250 252 254 251 249 244 240 241
37 42 51 47 51 53 53 56 56 56 53 53 46 45 42 34 11 231 235 239 250 265 255 251 263 261 255 256 257 258 257 255 254 255 254 253 253 253 256 252 245 246 239
32 31 34 37 43 46 43 47 52 48 45 50 50 49 42 30 3 331 329 239 239 262 277 275 269 263 263 263 263 263 259 258 257 256 256 255 254 253 253 253 252 247 247
32 29 30 26 30 31 33 32 36 32 33 38 35 33 32 30 29 18 346 299 256 256 266 283 286 271 270 268 268 264 261 262 260 258 257 257 256 254 253 252 251 249 246
28 29 24 17 18 16 16 15 16 12 14 13 8 1 358 352 343 335 323 301 285 273 269 279 286 287 281 272 275 273 266 261 271 270 260 259 258 257 258 256 253 251 252
13 12 16 16 12 8 7 7 3 2 2 360 355 351 350 344 338 328 315 303 292 283 275 273 275 281 283 278 271 267 268 265 267 269 263 257 257 257 259 255 255 254 254
26 16 10 5 3 4 0 357 356 357 355 353 350 347 346 343 339 335 328 318 307 297 288 283 277 272 273 276 280 278 274 270 269 268 265 264 260 258 261 258 252 255 253
19 13 6 0 354 354 355 354 355 355 351 347 346 346 343 341 338 335 332 329 323 313 302 293 285 280 276 272 275 280 278 277 272 267 265 263 263 262 261 257 256 251 252
8 1 354 351 351 351 347 344 348 351 349 351 348 348 348 346 343 342 339 336 331 324 317 309 301 291 284 278 274 273 278 277 277 270 268 266 266 263 265 260 262 262 255
356 351 344 343 341 343 339 339 342 342 342 344 338 341 342 343 344 343 340 337 335 332 330 324 315 305 296 289 280 275 264 271 274 271 268 266 263 263 263 264 264 259 255
341 338 334 332 334 334 328 329 330 330 332 334 331 335 337 337 337 336 336 335 334 331 330 327 323 316 310 302 292 284 276 270 262 269 270 266 263 260 259 262 262 260 259
331 326 325 326 329 327 325 326 328 329 330 326 326 329 332 332 334 333 332 331 329 328 329 327 326 322 318 319 312 298 286 276 270 260 266 266 263 261 259 258 259 261 261
326 323 323 324 327 322 325 325 327 327 327 324 324 326 327 327 326 327 326 327 328 328 328 327 325 322 316 317 314 303 296 284 281 272 259 266 264 261 261 257 255 257 259
321 323 320 324 322 321 324 324 324 325 322 321 322 324 326 325 325 322 322 323 324 324 325 325 325 322 317 314 310 301 292 287 281 276 268 262 264 261 259 259 256 255 261
323 320 320 321 320 325 322 321 321 322 321 321 321 323 324 324 324 323 323 322 324 324 324 324 320 321 322 320 310 304 293 288 283 281 273 263 263 262 259 260 256 254 252
319 319 318 320 320 323 320 319 321 321 320 320 320 322 323 325 326 326 321 322 324 325 322 321 322 320 318 317 313 303 301 284 282 275 269 263 265 261 259 255 256 251 238
314 314 317 316 318 320 318 319 321 321 320 318 320 322 323 326 325 326 326 321 323 318 317 319 315 313 314 315 315 313 309 296 288 285 281 267 259 257 255 253 250 236 229
312 313 313 315 314 316 317 321 320 319 318 317 319 321 323 325 326 326 326 319 311 311 311 308 309 310 308 307 307 304 299 291 286 287 286 278 261 251 249 250 242 228 223
312 312 313 310 314 316 317 320 319 318 316 315 318 319 321 325 325 327 326 322 312 312 311 308 307 306 303 303 302 301 296 288 280 280 274 273 268 248 247 244 238 224 221